User: anonymous   Login
Location: La Brionne
(46.1728°N, 1.7849°E)
Time: 01:11:03
(UTC+00:00)
Language:

Geosat - Orbit

View from above orbital plane
View from above orbital plane
View from above satellite
View from above satellite

Ground track
Ground track

The orbit data is extracted from the following two-line orbital elements,

1 15595U 85021A   21259.41225144 -.00000051  00000-0  27692-4 0  9990
2 15595 108.0484  75.2940 0002200 253.6629 106.4270 14.38219672913215
Epoch (UTC): 16 September 2021 09:53:38
Eccentricity: 0.0002200
inclination: 108.0484°
perigee height: 763 km
apogee height: 766 km
right ascension of ascending node: 75.2940°
argument of perigee: 253.6629°
revolutions per day: 14.38219672
mean anomaly at epoch: 106.4270°
orbit number at epoch: 91321

The dashed part of the orbit path shows where the satellite is in the earth's shadow,  

DLR